Wind_Speed
27 30 30 30 28 17 15 13 4 29 23 7 6 10 11 11 12 12 12 12 10 11 14 6 11 12 10 14 16 13 7 3 4 6 11 8 16 10 4 3 9 5 4 4
28 30 31 30 25 18 9 2 4 23 20 6 8 10 13 8 12 13 10 11 11 15 8 5 13 15 14 15 14 10 12 5 1 5 3 11 9 21 12 4 3 4 4 5
28 29 31 29 23 15 11 3 4 4 7 9 9 7 12 11 7 7 12 9 8 14 10 13 9 15 10 14 17 13 8 10 12 9 9 9 10 21 24 10 3 9 10 12
26 28 30 29 20 21 2 3 3 2 7 8 10 5 8 12 10 10 13 8 13 11 6 9 11 16 10 10 20 11 4 7 15 14 15 21 20 22 21 24 14 6 11 14
25 26 30 30 20 14 16 3 2 3 8 9 11 11 10 11 10 6 9 10 13 6 4 2 4 8 11 9 12 11 4 4 9 11 12 21 22 22 21 18 20 12 12 13
22 23 27 30 27 13 7 5 4 1 9 9 5 10 9 8 7 3 8 9 9 7 5 6 7 9 7 5 11 9 7 1 5 2 3 5 10 19 15 15 16 10 12 6
19 20 23 25 25 19 9 4 4 2 5 6 9 11 12 8 3 3 7 8 7 5 9 10 10 7 8 6 9 11 6 6 3 1 2 6 6 12 7 14 14 15 10 12
15 17 18 21 20 17 18 9 3 2 3 7 10 12 13 9 11 3 4 6 5 9 6 3 3 2 3 5 7 15 9 2 3 3 5 5 6 10 6 5 11 14 14 14
12 14 13 18 19 15 14 17 9 4 2 7 9 7 10 5 8 7 4 8 13 6 1 3 4 4 4 5 10 11 14 3 3 3 4 3 2 11 12 2 2 14 14 13
9 11 12 13 16 15 15 13 11 5 3 3 5 3 3 4 4 3 2 9 6 9 4 3 3 2 3 4 5 6 6 5 6 6 3 3 8 10 7 2 5 14 13 13
6 8 9 9 10 10 12 11 12 4 2 1 4 3 2 4 3 3 6 4 4 4 5 3 2 3 0 3 1 2 3 3 3 5 4 2 9 5 5 2 5 11 11 11
5 7 7 9 7 7 6 4 9 7 5 3 1 4 4 1 5 1 4 1 5 2 2 3 3 3 3 3 1 5 3 3 0 3 2 3 3 5 2 1 2 2 4 10
4 6 6 7 8 8 7 4 4 2 3 3 2 1 3 6 4 3 1 2 2 2 2 1 1 4 2 3 1 2 1 2 1 1 3 2 4 3 4 2 1 4 4 4
2 4 5 7 8 8 7 5 7 3 3 1 2 1 1 5 4 3 4 2 1 3 1 2 2 3 3 1 2 2 2 3 3 1 2 5 3 3 1 2 2 4 9 9
3 2 2 5 7 4 4 6 10 7 3 2 0 3 2 5 3 3 4 2 2 1 2 3 1 1 3 1 2 1 0 3 2 2 4 4 5 4 7 5 4 5 4 8
3 3 3 6 8 9 1 4 3 12 4 1 2 3 2 7 3 1 3 3 1 1 2 1 1 2 2 0 0 4 2 2 5 3 1 4 7 8 7 2 8 16 15 15
4 3 0 3 6 5 3 2 6 8 3 1 3 2 3 8 3 1 2 3 1 2 1 2 2 0 1 1 1 4 3 3 3 2 2 5 2 4 10 16 16 14 16 17
1 1 3 8 6 3 1 6 7 5 2 3 1 3 1 8 3 3 4 2 1 3 2 1 2 0 0 2 4 2 2 3 3 5 10 9 10 14 14 15 15 8 7 14
4 5 10 3 1 2 1 7 4 9 5 2 2 2 3 6 2 1 3 1 1 2 2 1 1 1 1 4 4 3 3 3 4 5 4 5 6 8 8 10 7 5 5 9
8 7 3 1 0 6 2 2 1 6 5 3 2 1 3 3 3 1 3 1 1 2 2 2 0 2 3 4 5 3 3 4 3 2 5 3 5 6 6 5 10 9 9 10
2 2 1 4 5 1 3 2 3 2 3 3 0 2 2 2 2 2 2 2 2 2 2 2 2 1 3 3 3 5 7 9 10 12 14 15 13 8 7 8 12 14 14 12
3 3 2 3 4 1 5 2 2 4 1 2 2 2 0 2 1 2 2 2 2 1 3 2 2 3 3 3 4 5 7 10 12 12 13 15 14 15 15 14 14 15 16 15
2 1 3 3 2 6 4 4 4 3 2 1 2 3 1 1 1 2 1 2 2 1 2 2 3 3 3 4 3 6 9 10 13 14 15 16 17 17 16 15 17 17 18 18
2 3 5 3 3 1 1 1 1 0 1 2 1 2 1 2 2 1 2 2 2 3 2 4 2 4 3 3 4 3 7 11 12 13 15 15 16 16 17 17 16 17 16 17
1 2 0 1 2 1 1 0 2 1 1 2 2 1 1 1 2 1 2 5 3 3 4 3 3 3 3 4 4 6 9 12 13 16 15 16 17 16 16 17 16 14 14 14
2 3 2 0 1 1 0 1 2 1 0 1 1 1 2 1 1 3 4 1 3 4 3 3 2 4 4 5 9 10 12 13 15 16 15 14 13 14 16 17 14 12 11 13
2 1 1 1 1 1 1 2 1 1 1 1 1 3 4 1 2 3 3 4 4 3 4 2 4 6 6 10 11 12 11 12 13 14 13 14 17 17 16 15 10 12 12 15
Wind_Direction
13 13 10 9 6 13 21 41 56 359 10 44 54 39 21 23 12 5 7 10 356 350 330 337 8 16 14 11 354 339 352 301 51 84 119 99 54 14 288 291 178 46 73 102
17 15 14 12 11 17 346 57 90 39 26 35 30 34 28 54 9 21 356 8 8 340 351 351 21 11 354 29 352 11 353 13 233 152 323 19 36 8 349 209 287 40 109 120
21 20 18 16 16 17 360 49 27 5 27 51 28 7 23 22 37 358 0 11 11 349 359 30 6 3 350 27 358 50 64 44 70 86 80 51 36 21 18 49 33 81 60 84
26 24 23 20 22 18 19 28 54 2 11 30 29 41 13 16 10 357 21 4 9 17 349 0 9 4 346 356 1 353 81 90 99 106 96 66 44 36 27 44 35 58 104 67
28 27 29 27 29 36 45 69 19 341 56 19 35 12 9 11 355 7 3 358 340 40 46 68 330 6 17 29 340 347 351 130 135 131 111 72 49 30 41 33 33 41 67 63
31 30 30 28 31 54 71 20 20 333 28 31 25 15 1 359 346 48 6 354 337 10 6 310 309 322 339 39 3 347 354 295 200 167 322 54 31 15 30 52 40 27 41 17
33 36 33 30 35 48 90 42 349 15 32 49 19 8 354 352 11 280 333 9 351 334 322 288 261 246 276 40 24 355 331 326 34 64 358 49 118 39 21 73 47 35 28 23
36 36 38 37 39 45 67 47 21 23 82 11 357 354 4 340 353 300 358 346 332 299 302 289 319 142 345 24 32 3 345 305 21 91 52 130 55 14 346 332 51 25 9 11
37 36 49 40 37 44 56 53 44 33 53 5 332 336 12 355 343 339 25 4 320 300 270 349 14 48 318 347 346 355 350 354 98 35 69 51 11 346 333 327 86 9 8 4
43 43 55 41 42 40 52 47 46 61 90 17 360 17 316 321 303 272 339 345 337 346 343 50 10 69 27 17 17 344 343 347 23 44 101 91 354 322 323 318 348 343 356 356
51 47 32 23 25 39 36 46 50 70 91 27 46 22 355 329 0 352 311 338 2 348 32 13 21 35 267 102 270 357 24 329 25 336 63 70 4 20 80 300 328 335 350 341
58 43 34 32 32 41 43 53 41 55 69 183 193 91 44 326 234 275 302 1 23 338 334 7 11 21 4 185 58 5 28 144 81 91 84 49 87 141 144 134 244 328 321 320
71 56 55 42 45 53 65 52 22 38 193 217 207 334 357 20 355 276 76 21 349 26 213 290 244 76 344 28 355 271 84 16 93 84 328 279 160 112 85 62 250 292 275 282
118 93 69 54 49 52 63 67 27 326 304 291 217 214 318 347 1 5 255 274 292 258 331 25 14 70 16 58 196 84 209 345 337 231 344 348 109 59 36 319 314 290 298 290
183 191 15 12 7 2 358 45 43 31 4 317 54 167 187 6 313 27 27 33 338 350 23 33 26 64 40 342 10 58 131 198 104 239 217 166 261 305 334 336 310 296 298 310
227 200 311 319 313 325 24 192 358 3 12 319 316 120 117 354 336 276 68 62 25 74 94 143 74 235 81 38 82 242 199 155 158 222 169 227 260 284 298 314 297 309 307 309
142 163 93 2 5 24 47 81 335 355 38 344 320 322 83 344 290 62 16 104 85 86 146 33 123 192 19 307 350 245 213 203 247 245 60 324 266 247 309 300 293 299 298 294
131 337 337 342 349 41 75 350 359 17 347 32 29 297 351 8 316 349 9 345 117 1 173 333 26 153 148 351 250 218 235 252 275 239 212 234 270 295 285 286 280 278 269 278
292 306 314 324 7 303 29 330 31 39 56 96 48 19 305 7 325 283 351 31 58 249 48 57 1 278 348 234 216 214 225 182 239 299 265 255 229 260 271 280 285 253 269 277
285 309 279 298 303 325 4 18 24 25 26 13 81 313 298 33 336 6 358 352 20 40 269 313 52 256 234 230 215 189 214 219 202 291 316 325 302 295 287 290 300 300 298 303
296 280 332 293 334 27 16 32 55 327 36 16 358 93 298 44 21 327 76 300 321 2 294 80 291 296 269 269 267 247 256 260 257 249 253 260 259 275 285 291 298 303 304 306
281 290 313 352 19 350 73 354 347 45 259 351 5 305 196 329 5 290 351 325 23 298 294 41 290 251 258 269 268 270 271 266 269 274 280 286 282 284 286 288 289 292 297 302
311 17 37 41 321 29 69 344 324 3 348 23 343 321 59 312 174 290 24 358 240 319 37 239 232 239 274 265 264 280 294 297 291 288 287 288 289 290 285 283 288 292 293 295
63 60 347 82 342 94 168 190 202 296 333 11 356 285 52 334 336 1 13 249 43 354 9 245 255 244 249 264 270 274 283 292 297 298 299 297 296 297 296 293 293 291 284 290
90 56 50 75 174 44 69 48 330 201 311 11 344 264 103 308 349 167 355 5 291 191 236 242 253 249 257 286 282 278 281 289 292 301 299 298 299 296 295 300 303 308 306 297
73 69 79 100 35 222 233 183 268 136 222 164 173 275 7 306 54 10 238 80 244 261 240 253 284 283 258 268 278 285 291 294 295 300 301 301 305 309 312 314 310 311 311 304
74 308 309 89 113 154 109 115 91 8 4 348 61 42 234 347 4 292 190 205 231 239 286 279 286 273 273 283 287 290 296 305 311 312 312 309 312 310 306 293 306 316 312 304
Height
840 833 827 820 814 809 806 805 811 810 798 799 802 811 810 807 806 802 800 798 795 796 790 784 782 784 779 772 772 764 756 758 755 769 778 782 792 791 777 742 681 719 740 813
842 835 829 823 818 815 812 809 812 815 809 819 817 816 814 812 814 810 808 805 801 796 790 793 788 790 781 780 776 772 765 771 760 774 774 777 790 798 786 756 743 784 764 819
844 838 832 826 822 819 815 814 821 821 819 825 828 825 823 821 817 814 813 810 804 804 797 797 802 796 789 788 781 771 776 789 790 809 819 816 813 804 795 766 786 805 818 834
847 842 836 830 825 821 819 821 835 833 837 830 831 829 829 829 828 820 818 814 814 816 819 812 816 809 798 794 789 781 786 809 806 816 817 813 818 816 813 809 807 813 835 838
851 846 840 835 830 827 826 831 835 835 837 835 836 836 836 834 832 828 826 826 819 819 828 830 831 819 812 815 803 797 786 799 800 803 798 804 823 823 826 825 824 828 826 838
855 851 847 842 836 832 837 841 839 839 841 844 841 842 838 837 834 826 827 827 823 821 827 824 821 819 815 815 815 809 805 803 798 801 787 784 823 837 832 839 837 841 844 849
859 856 852 848 843 840 841 844 844 843 851 847 849 843 839 834 835 837 828 828 829 825 822 819 816 818 816 813 816 810 811 805 792 807 795 846 847 843 842 847 849 849 853 848
863 859 856 853 849 847 845 847 847 848 858 855 852 846 845 836 834 828 830 829 828 823 820 824 822 816 816 815 816 816 808 820 835 840 841 846 846 850 853 851 857 855 852 846
865 862 860 858 855 853 850 850 851 851 856 866 859 851 851 851 847 836 827 828 824 820 820 819 829 841 839 833 829 823 812 813 825 825 844 839 867 854 846 841 847 856 854 854
867 865 863 861 859 858 855 855 854 854 862 864 862 863 863 855 853 847 832 836 830 824 824 827 841 846 841 865 861 855 843 845 836 820 849 859 864 857 850 852 868 862 860 860
869 867 865 864 862 861 860 860 857 857 863 866 864 863 866 862 860 861 845 840 841 840 846 842 844 849 858 859 864 873 873 879 860 841 848 871 867 862 876 881 877 870 867 866
870 869 868 866 864 863 862 862 861 861 862 865 864 863 863 862 861 862 855 851 850 852 850 852 849 848 853 865 870 861 885 885 882 881 871 871 873 879 877 878 880 877 877 870
871 870 869 867 866 865 864 864 863 863 863 863 862 862 862 861 859 859 863 854 856 856 855 858 860 871 858 869 880 868 870 871 880 875 876 876 873 875 876 877 878 877 874 872
872 871 870 869 868 867 865 865 865 864 863 865 865 861 861 860 859 858 858 857 856 855 853 859 862 861 860 876 878 875 877 873 877 876 877 874 871 874 875 875 874 873 871 870
872 872 872 871 869 868 867 867 866 866 869 865 861 859 860 859 858 858 857 856 856 858 862 867 874 867 869 875 875 883 882 888 891 885 882 884 881 875 872 872 871 869 867 862
872 873 872 871 870 868 868 867 868 866 866 867 866 859 859 858 857 857 857 857 857 859 864 871 872 872 875 878 878 882 878 878 880 883 879 879 875 873 871 871 868 865 862 859
874 873 872 871 870 869 869 870 869 866 866 867 868 860 860 859 857 855 856 857 859 861 866 870 868 870 870 875 884 882 878 877 876 874 876 879 874 875 870 869 866 864 862 859
875 874 873 872 871 870 870 870 869 866 866 867 878 870 861 863 864 866 858 860 859 864 867 867 870 870 871 886 881 878 875 874 874 874 873 872 871 870 867 864 862 861 859 856
876 875 873 872 872 870 871 870 869 867 870 877 877 886 882 867 865 863 863 862 860 866 869 871 870 874 886 879 879 877 875 875 875 872 870 868 869 866 863 860 858 857 855 852
876 875 873 872 872 870 871 870 870 870 873 874 883 882 886 881 876 867 875 865 870 872 880 871 876 882 873 874 872 870 870 869 869 871 870 865 863 862 859 856 853 852 850 848
875 874 873 872 871 871 871 878 881 882 887 886 888 890 892 883 891 886 881 885 874 879 880 881 875 876 875 871 869 866 866 866 865 865 863 861 859 856 854 852 850 847 845 844
875 875 873 873 873 873 882 891 885 888 893 890 891 890 888 887 886 885 884 885 885 886 882 885 882 879 872 869 867 864 863 862 860 859 857 855 853 852 849 847 846 844 842 840
875 875 875 877 881 892 893 901 895 897 894 892 892 894 889 886 887 890 894 891 893 885 896 889 884 873 867 866 863 861 860 858 856 854 852 850 848 846 845 843 841 839 837 835
877 882 887 891 893 891 891 893 895 893 891 891 892 892 892 888 889 890 895 894 893 902 899 889 879 869 865 861 860 859 856 855 853 851 849 846 844 842 840 839 837 835 832 831
881 883 888 892 890 891 893 894 894 891 891 892 892 892 892 888 895 888 897 905 903 888 895 881 869 862 862 859 857 855 854 852 850 848 846 844 842 839 836 835 833 831 830 828
882 885 889 889 891 893 894 894 894 890 891 891 892 894 899 897 899 901 903 899 904 887 877 865 860 858 857 855 853 852 850 849 847 844 843 840 838 836 834 831 830 828 827 826
884 889 884 886 888 890 890 888 890 890 892 895 896 904 900 904 908 901 888 897 880 870 864 859 856 855 853 851 850 848 847 846 844 842 840 837 835 833 830 828 827 826 824 823